Waarnemingen

Advertentie
Mijn weer
Lyon/Satolas, Frankrijk (7481): temperatuur & dauwpunt: 29.07.2020 19:00:00 - 04.08.2020 19:00:00 (CEST)Lyon/Satolas, Frankrijk (7481): temperatuur 5cm: 29.07.2020 19:00:00 - 04.08.2020 19:00:00 (CEST)Lyon/Satolas, Frankrijk (7481): temperatuur -20cm & temperatuur -100cm: 29.07.2020 19:00:00 - 04.08.2020 19:00:00 (CEST)Lyon/Satolas, Frankrijk (7481): windsnelheid & windstoten: 29.07.2020 19:00:00 - 04.08.2020 19:00:00 (CEST)Lyon/Satolas, Frankrijk (7481): windrichting: 29.07.2020 19:00:00 - 04.08.2020 19:00:00 (CEST)Lyon/Satolas, Frankrijk (7481): luchtdruk: 29.07.2020 19:00:00 - 04.08.2020 19:00:00 (CEST)Lyon/Satolas, Frankrijk (7481): zicht: 29.07.2020 19:00:00 - 04.08.2020 19:00:00 (CEST)Lyon/Satolas, Frankrijk (7481): neerslag: 29.07.2020 19:00:00 - 04.08.2020 19:00:00 (CEST)
Datum & Tijd tt [°C] td [°C] tt 5cm [°C] tt -20cm [°C] tt -100cm [°C] ff [km/u] ff [kn] fx [km/u] fx [kn] dd ppp [hPa] vv [km] rr [mm]
04.08.2020 19:00:00 23,8 9,0 28,1 24,2 24,0 27 14 43 23 N 1014,7 60 0,0
04.08.2020 18:00:00 23,8 8,6 29,0 24,0 24,0 30 16 44 24 N 1014,9 60 0,0
04.08.2020 17:00:00 23,4 10,1 28,6 23,7 24,0 29 16 47 25 N 1015,0 50 0,0
04.08.2020 16:00:00 22,7 10,2 25,6 23,2 24,1 28 15 46 25 N 1015,4 40 0,0
04.08.2020 15:00:00 22,1 9,9 27,5 22,6 24,1 29 16 51 28 N 1015,8 40 0,0
04.08.2020 14:00:00 21,1 10,9 25,7 22,1 24,1 31 17 56 31 N 1016,0 40 0,0
04.08.2020 13:00:00 20,1 11,3 24,9 21,6 24,2 28 15 41 22 N 1016,2 40 0,0
04.08.2020 12:00:00 18,8 11,6 23,7 21,3 24,2 24 13 43 23 NNW 1016,3 40 0,0
04.08.2020 11:00:00 17,4 11,4 19,7 21,0 24,2 24 13 43 23 N 1016,4 40 0,0
04.08.2020 10:00:00 17,0 12,5 21,0 21,0 24,2 27 14 39 21 N 1016,5 40 0,0
04.08.2020 09:00:00 15,9 11,7 18,7 21,1 24,2 24 13 36 19 NNW 1016,4 40 0,0
04.08.2020 08:00:00 14,3 11,4 14,6 21,2 24,2 14 8 23 12 N 1016,1 40 0,0
04.08.2020 07:00:00 13,3 11,2 12,6 21,5 24,3 9 5 15 8 NNW 1015,7 60 0,0
04.08.2020 06:00:00 13,8 11,1 12,4 21,7 24,3 8 4 10 5 N 1015,4 60 0,0
04.08.2020 05:00:00 14,2 11,4 12,8 21,9 24,3 4 2 8 4 WNW 1014,8 60 0,0
04.08.2020 04:00:00 14,7 11,8 13,9 22,1 24,3 3 2 16 8 WZW 1014,8 20 0,0
04.08.2020 03:00:00 14,5 12,7 13,8 22,2 24,3 3 1 6 3 ZW 1015,0 40 0,0
04.08.2020 02:00:00 14,5 12,9 13,4 22,5 24,4 6 3 9 5 O 1015,1 40 0,0
04.08.2020 01:00:00 14,2 12,6 12,5 22,7 24,4 4 2 5 3 ZZW 1015,3 40 0,0
04.08.2020 00:00:00 14,4 12,6 12,9 23,0 24,4 2 1 6 3 ZW 1015,3 40 0,0
03.08.2020 23:00:00 15,0 12,3 13,7 23,3 24,4 2 1 11 6 NO 1015,1 60 0,0
03.08.2020 22:00:00 15,8 12,7 15,0 23,6 24,5 9 5 32 17 ONO 1014,5 60 0,0
03.08.2020 21:00:00 17,1 12,2 16,8 23,8 24,5 18 10 29 16 N 1013,9 60 0,0
03.08.2020 20:00:00 17,0 13,5 16,8 24,1 24,5 9 5 17 9 N 1013,7 60 0,0
03.08.2020 19:00:00 16,5 13,2 14,4 24,3 24,6 15 8 52 28 N 1013,6 20 3,4
03.08.2020 18:00:00 18,5 12,7 16,1 24,4 24,6 26 14 47 25 NNW 1013,2 5 0,2
03.08.2020 17:00:00 21,7 10,5 22,9 24,2 24,6 16 8 30 16 N 1012,4 50 0,0
03.08.2020 16:00:00 19,8 12,1 20,4 24,2 24,6 17 9 42 23 NNO 1013,0 30 0,0
03.08.2020 15:00:00 21,5 10,6 25,2 23,9 24,7 22 12 44 24 N 1013,0 50 0,0
03.08.2020 14:00:00 21,6 10,7 27,0 23,5 24,7 28 15 51 27 N 1013,4 25 0,0
03.08.2020 13:00:00 21,1 12,0 25,2 23,2 24,7 25 13 43 23 N 1013,4 50 0,0
03.08.2020 12:00:00 20,2 12,2 22,7 23,0 24,7 27 15 41 22 N 1013,5 50 0,0
03.08.2020 11:00:00 19,4 12,2 21,4 22,9 24,7 28 15 41 22 N 1013,3 50 0,0
03.08.2020 10:00:00 19,3 12,3 20,2 22,9 24,7 23 12 40 21 NNW 1013,2 50 0,0
03.08.2020 09:00:00 18,7 12,7 19,3 23,0 24,8 18 10 29 16 NNW 1013,3 50 0,0
03.08.2020 08:00:00 18,4 14,9 17,6 23,1 24,8 14 8 29 16 NW 1013,3 50 0,0
03.08.2020 07:00:00 17,6 15,4 17,1 23,3 24,8 13 7 24 13 NNW 1013,2 50 0,0
03.08.2020 06:00:00 17,7 15,5 17,3 23,4 24,9 13 7 24 13 NNW 1013,1 50 0,0
03.08.2020 05:00:00 17,9 15,9 17,5 23,5 24,9 11 6 19 11 NNW 1013,4 50 0,0
03.08.2020 04:00:00 18,0 16,3 17,8 23,7 24,9 10 5 19 10 N 1013,8 40 0,0
03.08.2020 03:00:00 18,4 16,6 18,0 23,8 24,9 16 9 26 14 N 1013,7 30 0,0
03.08.2020 02:00:00 19,8 15,9 19,5 23,9 24,9 18 10 27 15 N 1013,8 50 0,0
03.08.2020 01:00:00 20,3 15,9 19,5 24,0 24,9 11 6 18 10 NNW 1014,2 50 0,0
03.08.2020 00:00:00 20,5 17,1 20,0 24,2 25,0 9 5 16 8 NNW 1014,3 50 0,0
02.08.2020 23:00:00 20,6 17,0 19,6 24,2 25,0 6 4 11 6 N 1014,4 50 0,0
02.08.2020 22:00:00 21,1 17,3 19,7 24,3 25,0 5 3 11 6 NO 1014,2 50 0,0
02.08.2020 21:00:00 21,9 17,5 21,3 24,3 25,0 9 5 23 12 N 1013,7 50 0,0
02.08.2020 20:00:00 23,1 17,3 23,6 24,1 25,0 16 9 31 17 NNW 1014,1 50 0,0
02.08.2020 19:00:00 23,8 17,3 25,1 23,8 25,1 18 10 32 17 N 1013,5 40 0,0
02.08.2020 18:00:00 22,0 19,4 22,0 23,4 25,0 13 7 25 13 N 1013,7 20 0,0
02.08.2020 17:00:00 20,1 19,4 18,8 23,3 25,3 9 5 32 18 O 1014,6 12 4,6
02.08.2020 16:00:00 18,9 18,1 18,4 24,3 25,1 10 5 67 36 NNO 1015,7 1,2 38,3
02.08.2020 15:00:00 24,8 18,5 24,8 25,0 25,1 17 9 34 18 N 1014,3 40 0,2
02.08.2020 14:00:00 25,8 17,2 28,7 24,7 25,1 23 12 42 23 N 1014,2 40 0,0
02.08.2020 13:00:00 25,4 17,8 28,7 24,2 25,1 19 11 34 18 N 1014,6 40 0,0
02.08.2020 12:00:00 24,7 18,2 28,5 23,8 25,1 18 10 30 16 N 1015,0 40 0,0
02.08.2020 11:00:00 24,6 18,1 27,4 23,5 25,1 19 10 32 17 N 1015,2 40 0,0
02.08.2020 10:00:00 22,9 18,7 24,0 23,2 25,1 15 8 23 13 NNW 1015,2 40 0,0
02.08.2020 09:00:00 21,8 18,4 22,6 23,0 25,1 13 7 18 10 NNW 1015,5 40 0,0
02.08.2020 08:00:00 21,5 18,5 21,8 22,9 25,1 9 5 16 9 N 1015,2 40 0,0
02.08.2020 07:00:00 20,5 17,9 18,4 22,8 25,1 2 1 8 4 NNO 1015,1 40 0,0
02.08.2020 06:00:00 20,3 18,2 18,4 22,7 25,2 2 1 10 5 W 1015,1 30 0,0
02.08.2020 05:00:00 20,6 18,4 19,5 22,6 25,2 6 4 10 5 W 1015,3 30 0,0
02.08.2020 04:00:00 20,5 18,4 18,7 22,5 25,1 7 4 10 5 W 1015,4 30 0,0
02.08.2020 03:00:00 21,0 18,6 19,2 22,3 25,1 4 2 8 4 Z 1015,6 35 0,0
02.08.2020 02:00:00 21,0 19,3 18,8 22,1 25,1 5 3 10 6 OZO 1016,1 40 0,0
02.08.2020 01:00:00 20,8 19,6 18,9 21,8 25,1 2 1 5 3 O 1016,1 40 0,0
02.08.2020 00:00:00 21,1 20,1 18,5 21,4 25,1 3 2 11 6 ZZW 1016,2 40 0,0
01.08.2020 23:00:00 20,9 19,9 19,6 21,0 25,1 7 4 22 12 WNW 1015,9 40 0,0
01.08.2020 22:00:00 22,9 21,0 19,8 20,5 25,1 6 4 19 11 ZW 1014,7 30 0,0
01.08.2020 21:00:00 22,0 20,8 17,9 19,9 25,1 19 10 32 17 NNW 1014,1 30 0,0
01.08.2020 20:00:00 21,2 20,7 14,0 20,8 25,5 13 7 75 40 N 1014,1 12 61,5
01.08.2020 19:00:00 21,9 17,7 19,7 34,3 25,1 57 31 94 51 W 1015,9 1,3 4,3
01.08.2020 18:00:00 34,0 14,0 34,9 34,1 25,1 17 9 27 15 N 1011,9 35 0,0
01.08.2020 17:00:00 35,2 14,5 41,5 33,5 25,1 15 8 30 16 N 1011,5 35 0,0
01.08.2020 16:00:00 35,1 13,9 45,1 32,7 25,1 14 7 28 15 N 1011,6 50 0,0
01.08.2020 15:00:00 34,6 14,5 44,5 31,9 25,1 15 8 30 16 NNW 1012,5 50 0,0
01.08.2020 14:00:00 33,6 14,1 43,7 31,2 25,1 17 9 27 14 N 1013,3 50 0,0
01.08.2020 13:00:00 32,8 15,8 42,6 30,5 25,1 9 5 29 16 NO 1014,0 50 0,0
01.08.2020 12:00:00 31,1 16,3 39,7 30,1 25,1 11 6 23 12 N 1014,5 50 0,0
01.08.2020 11:00:00 29,8 16,2 36,6 29,9 25,0 9 5 21 12 NNW 1014,9 50 0,0
01.08.2020 10:00:00 28,4 16,3 32,9 29,9 25,0 5 3 19 11 NNW 1015,1 60 0,0
01.08.2020 09:00:00 26,1 16,6 27,4 30,0 25,0 10 6 23 12 W 1015,5 60 0,0
01.08.2020 08:00:00 23,7 16,2 22,6 30,3 25,0 9 5 14 7 WZW 1015,4 60 0,0
01.08.2020 07:00:00 23,0 15,8 21,5 30,7 25,0 6 3 11 6 ZZO 1015,0 60 0,0
01.08.2020 06:00:00 23,2 15,8 20,7 31,1 25,0 8 4 11 6 NO 1014,8 50 0,0
01.08.2020 05:00:00 23,6 15,9 21,0 31,4 25,0 3 2 4 2 NNW 1014,6 50 0,0
01.08.2020 04:00:00 25,3 15,3 21,3 31,7 24,9 0 0 11 6 N 1014,2 50 0,0
01.08.2020 03:00:00 25,2 15,2 21,7 32,2 25,0 4 2 8 4 ZW 1014,4 50 0,0
01.08.2020 02:00:00 26,0 15,1 23,7 32,5 24,9 5 3 12 6 W 1015,0 50 0,0
01.08.2020 01:00:00 27,6 14,9 24,8 32,9 24,9 6 4 30 16 Z 1015,2 50 0,0
01.08.2020 00:00:00 29,1 14,5 28,0 33,3 24,9 17 9 36 19 NO 1015,2 37 0,0
31.07.2020 23:00:00 30,8 14,0 29,0 33,7 24,9 7 4 29 15 NO 1014,6 40 0,0
31.07.2020 22:00:00 33,2 13,8 31,7 34,0 24,9 16 8 27 14 WNW 1013,4 30 0,0
31.07.2020 21:00:00 34,6 13,4 33,7 34,2 24,9 16 8 29 16 ZO 1011,5 30 0,0
31.07.2020 20:00:00 36,2 10,4 35,8 34,3 24,9 15 8 36 19 ZZO 1010,7 30 0,0
31.07.2020 19:00:00 37,7 9,3 40,1 34,0 24,9 21 11 35 19 Z 1010,8 40 0,0
31.07.2020 18:00:00 38,3 9,8 44,4 33,6 24,9 17 9 33 18 Z 1011,2 40 0,0
31.07.2020 17:00:00 38,7 10,1 45,5 32,9 24,8 18 10 38 21 Z 1011,6 40 0,0
31.07.2020 16:00:00 37,7 10,1 44,9 32,2 24,9 19 11 37 20 ZZW 1012,2 40 0,0
31.07.2020 15:00:00 37,4 11,4 44,2 31,4 24,8 18 10 36 19 Z 1012,6 40 0,0
31.07.2020 14:00:00 36,4 11,9 42,6 30,7 24,9 23 12 44 24 Z 1013,2 40 0,0
31.07.2020 13:00:00 35,5 13,1 41,8 30,2 24,8 22 12 42 23 Z 1013,8 40 0,0
31.07.2020 12:00:00 33,7 12,7 39,8 29,7 24,8 19 10 37 20 Z 1014,2 40 0,0
31.07.2020 11:00:00 32,0 15,1 36,7 29,5 24,8 14 8 25 14 ZO 1014,5 40 0,0
31.07.2020 10:00:00 30,0 15,3 33,3 29,5 24,8 15 8 25 13 ZO 1015,0 40 0,0
31.07.2020 09:00:00 27,7 15,7 29,8 29,6 24,8 12 6 18 10 ZO 1015,6 40 0,0
31.07.2020 08:00:00 25,6 15,9 24,8 29,8 24,8 10 6 17 9 ZO 1015,7 40 0,0
31.07.2020 07:00:00 24,0 15,8 23,1 30,1 24,8 11 6 21 12 ZO 1015,9 40 0,0
31.07.2020 06:00:00 24,5 15,4 23,0 30,5 24,8 15 8 24 13 ZO 1015,5 31 0,0
31.07.2020 05:00:00 24,8 15,1 22,7 30,8 24,7 10 5 22 12 ZO 1015,3 36 0,0
31.07.2020 04:00:00 26,1 14,9 23,6 31,2 24,7 14 8 29 16 ZO 1015,3 40 0,0
31.07.2020 03:00:00 27,9 14,5 25,7 31,5 24,7 16 8 34 19 ZZO 1015,1 40 0,0
31.07.2020 02:00:00 28,0 14,3 26,4 32,0 24,7 12 7 31 17 ZZO 1015,2 40 0,0
31.07.2020 01:00:00 28,4 14,6 25,5 32,3 24,7 11 6 21 11 ZO 1015,4 40 0,0
31.07.2020 00:00:00 28,6 12,9 26,9 32,7 24,7 14 7 38 21 ZZO 1015,0 50 0,0
30.07.2020 23:00:00 29,8 11,3 25,8 33,1 24,7 11 6 24 13 Z 1014,8 50 0,0
30.07.2020 22:00:00 31,4 11,2 28,8 33,5 24,7 13 7 32 18 ZZO 1013,6 50 0,0
30.07.2020 21:00:00 33,2 17,4 32,8 33,6 24,7 19 11 35 19 Z 1012,8 50 0,0
30.07.2020 20:00:00 34,8 17,1 35,8 33,5 24,7 14 8 25 14 Z 1012,8 50 0,0
30.07.2020 19:00:00 36,0 14,1 39,1 33,3 24,7 16 8 30 16 Z 1012,6 50 0,0
30.07.2020 18:00:00 36,4 13,8 42,7 32,8 24,7 17 9 33 18 Z 1012,8 50 0,0
30.07.2020 17:00:00 36,6 14,0 44,2 32,1 24,7 12 6 32 18 Z 1013,0 50 0,0
30.07.2020 16:00:00 36,2 15,9 44,2 31,2 24,7 10 5 23 12 ZW 1014,0 50 0,0
30.07.2020 15:00:00 35,0 15,8 42,8 30,4 24,6 8 4 22 12 NNW 1014,6 60 0,0
30.07.2020 14:00:00 33,1 15,6 42,2 29,6 24,6 7 4 21 12 OZO 1015,5 60 0,0
30.07.2020 13:00:00 30,8 13,6 39,5 29,0 24,6 9 5 19 10 ONO 1016,3 60 0,0
30.07.2020 12:00:00 28,8 12,7 36,7 28,5 24,6 8 5 18 10 W 1017,2 60 0,0
30.07.2020 11:00:00 26,4 12,1 33,3 28,3 24,6 7 4 22 12 NW 1017,6 34 0,0
30.07.2020 10:00:00 24,2 11,5 30,3 28,3 24,6 6 3 14 8 N 1017,9 60 0,0
30.07.2020 09:00:00 22,1 12,1 25,6 28,4 24,6 6 3 14 8 NNW 1018,3 60 0,0
30.07.2020 08:00:00 20,6 11,0 19,9 28,8 24,6 6 3 10 5 W 1018,2 60 0,0
30.07.2020 07:00:00 19,3 10,6 18,2 29,1 24,6 5 3 13 7 NNW 1017,9 60 0,0
30.07.2020 06:00:00 19,6 10,6 17,0 29,5 24,6 10 5 14 7 NNO 1017,4 60 0,0
30.07.2020 05:00:00 20,4 9,9 18,8 29,8 24,5 6 3 9 5 NNW 1017,3 50 0,0
30.07.2020 04:00:00 21,2 10,4 17,5 30,2 24,5 5 3 10 5 ONO 1017,2 50 0,0
30.07.2020 03:00:00 21,6 11,9 18,0 30,7 24,6 5 3 9 5 NNO 1017,1 50 0,0
30.07.2020 02:00:00 23,2 9,9 19,0 31,1 24,5 4 2 11 6 WZW 1017,2 50 0,0
30.07.2020 01:00:00 22,9 11,0 20,7 31,5 24,5 5 3 16 9 W 1017,2 50 0,0
30.07.2020 00:00:00 24,6 9,7 20,1 32,0 24,5 7 4 14 8 NW 1017,0 50 0,0
29.07.2020 23:00:00 25,7 10,3 23,6 32,3 24,5 8 4 11 6 N 1016,7 50 0,0
29.07.2020 22:00:00 26,9 10,1 25,2 32,7 24,5 6 4 14 8 N 1016,4 50 0,0
29.07.2020 21:00:00 28,4 9,1 27,9 32,9 24,5 12 6 22 12 N 1015,6 40 0,0
29.07.2020 20:00:00 29,8 9,8 33,0 33,0 24,5 15 8 25 14 N 1015,6 40 0,0
29.07.2020 19:00:00 30,2 10,2 34,6 32,8 24,5 17 9 32 17 N 1015,5 40 0,0

tt = temperatuur
td = dauwpunt
tt 5cm = temperatuur 5cm
tt -20cm = temperatuur -20cm
tt -100cm = temperatuur -100cm
ff = windsnelheid
fx = windstoten
dd = windrichting
ppp = luchtdruk
vv = zicht
rr = neerslag

Weerstations in de omgeving